Regional Weather Roundup
Issued by NWS

Home | Current Version | Previous Version | Graphics & Text | Print | Product List | Glossary On
Versions: 1 2 3 4 5 6 7 8 9 10 11 12 13 14 15 16 17 18 19 20 21 22 23 24 25 26 27 28 29 30 31 32 33 34 35 36 37 38 39 40 41 42 43 44 45 46 47 48 49 50
000
ASUS45 KTFX 040610
RWRMT
MONTANA REGIONAL WEATHER ROUNDUP
NATIONAL WEATHER SERVICE GREAT FALLS MT
1200 AM MDT TUE AUG 04 2015

NOTE: "FAIR" INDICATES FEW OR NO CLOUDS BELOW 12000 FEET WITH NO
SIGNIFICANT WEATHER AND/OR OBSTRUCTIONS TO VISIBILITY.

MTZ001>007-043-040700-
WEST OF THE DIVIDE

CITY           SKY/WX    TMP DP  RH WIND       PRES   REMARKS
KALISPELL      CLOUDY    75  40  28 S9        29.84R
MISSOULA       CLOUDY    78  37  22 N10       29.89F
BUTTE          CLOUDY    69  42  37 CALM      30.05R
MULLAN PASS    CLOUDY    62  37  39 NW9G17    30.06F
DEER LODGE       N/A     68  45  42 CALM      30.01R
EUREKA           N/A     82  39  21 SW8       29.84R
HAMILTON         N/A     73  48  40 S2        29.90S
LIBBY            N/A     75  43  31 CALM      29.85R
PLAINS           N/A     77  44  30 CALM      29.89R
RONAN            N/A     78  43  28 SW3       29.94F
$$

MTZ008-052>055-040700-
SOUTHWEST MONTANA

CITY           SKY/WX    TMP DP  RH WIND       PRES   REMARKS
BOZEMAN        CLOUDY    70  52  52 NW16      29.97R
DILLON         CLOUDY    70  46  42 SW12      30.02R
W YELLOWSTONE  CLOUDY    59  48  67 CALM      30.18R
$$

MTZ009-010-012-014-046-048-049-054-040700-
EAST SLOPES AND CENTRAL MONTANA

CITY           SKY/WX    TMP DP  RH WIND       PRES   REMARKS
CUT BANK       CLOUDY    81  41  24 SW26G36   29.80F
GREAT FALLS    MOCLDY    75  45  34 S12       29.82S
MALMSTROM AFB  CLOUDY    80  44  27 W10G24    29.81S
HELENA         CLOUDY    81  41  24 SW8       29.88R
CONRAD           N/A     78  52  40 SW5       29.84F
$$

MTZ011-013-016-021-045-047-050-051-040700-
NORTH CENTRAL MONTANA

CITY           SKY/WX    TMP DP  RH WIND       PRES   REMARKS
HAVRE          CLEAR     71  50  47 E16       29.78S
LEWISTOWN      MOCLDY    70  46  42 E7        29.91S
CHINOOK          N/A     70  52  52 E10       29.82S
FORT BENTON      N/A     81  45  28 SE9G25    29.79R
$$

MTZ017>020-022>027-061-062-040700-
NORTHEAST MONTANA

CITY           SKY/WX    TMP DP  RH WIND       PRES   REMARKS
GLASGOW        CLEAR     69  45  41 E15       29.89S
JORDAN           N/A     71  47  42 E8        29.89S
SIDNEY         PTCLDY   N/A N/A N/A N3        29.94S
WOLF POINT     CLEAR     63  47  55 NE7       29.93S
MALTA            N/A     72  48  42 NE2       29.83F
$$

MTZ028>42-056>058-040700-
SOUTHCENTRAL AND SOUTHEAST MONTANA

CITY           SKY/WX    TMP DP  RH WIND       PRES   REMARKS
BAKER          MOCLDY    65  51  60 E7        29.97S
BILLINGS       MOCLDY    77  46  33 SW12      29.89S
LIVINGSTON     MOCLDY    74  44  34 SW17      29.94R
MILES CITY     PTCLDY    76  51  41 E8        29.89F
EKALAKA          N/A     67  51  56 SE10      29.95F
FORSYTH          N/A     75  52  43 E10       29.85F
LAUREL           N/A     77  46  33 S5        29.90F
$$

REGIONAL REPORTS...DAKOTAS

CITY           SKY/WX    TMP DP  RH WIND       PRES   REMARKS
WILLISTON      CLEAR     66  51  58 E6        29.97S
MINOT          CLEAR     60  49  66 CALM      29.97S
DICKINSON      PTCLDY    57  49  74 E9        29.98S
CROSBY         FAIR      55  55 100 NE3       29.99S
BISMARCK       CLEAR     55  51  86 E3        29.99R
GRAND FORKS    CLEAR     54  50  86 N3        29.93R
FARGO          CLEAR     56  49  77 SW6       29.95S
BUFFALO SD       N/A     68  53  58 E10       29.91F
RAPID CITY     CLOUDY    68  59  73 CALM      29.97F
$$

REGIONAL REPORTS...WYOMING/IDAHO/WASHINGTON

CITY           SKY/WX    TMP DP  RH WIND       PRES   REMARKS
GILLETTE       CLOUDY    67  49  52 CALM      29.96F
SHERIDAN       CLOUDY    78  42  27 S28G37    29.88F
BUFFALO WY     CLOUDY    67  49  52 W20       29.99F
CODY           CLOUDY    66  52  59 S12       30.01F
YELLOWSTONE LA   N/A     51  47  86 CALM      30.24F
IDAHO FALLS    CLOUDY    65  53  65 E5        30.07R
SALMON         CLOUDY    73  43  33 S8        29.93R
BOISE          CLEAR     76  47  35 CALM      29.88R
SPOKANE        CLOUDY    75  49  39 S3        29.87F
$$

REGIONAL REPORTS...ALBERTA

CITY           SKY/WX    TMP DP  RH WIND       PRES   REMARKS
EDMONTON       CLEAR     68  55  64 E9G17     29.74F
CALGARY        MOCLDY    72  52  49 NW6       29.83R
LETHBRIDGE     MOCLDY    68  54  60 SE6       29.73S
MEDICINE HAT   MOCLDY    81  48  32 SE20G30   29.73F
WATERTON GATE    N/A     61  50  67 SW7         N/A
$$

REGIONAL REPORTS...SASKATCHEWAN

CITY           SKY/WX    TMP DP  RH WIND       PRES   REMARKS
SWIFT CURRENT  CLEAR     63  55  77 SE12      29.92S
REGINA         PTCLDY    63  52  67 E10       29.98S
SASKATOON      CLEAR     66  55  68 SE10      29.98R
CYPRESS HILLS    N/A     63  46  55 SE12G17     N/A
VAL MARIE        N/A     66  48  52 SE14        N/A
ROCKGLEN         N/A     63  50  63 E9          N/A
ASSINIBOIA       N/A     68  54  60 SE13G20     N/A
$$



USA.gov is the U.S. government's official web portal to all federal, state and local government web resources and services.